Location: Haliburton Scout Reserve
(45.0900°N, 78.3200°W)
Time: 19:45:23
(UTC-04:00)

STRAND 1 - Pass Details

Date: 02 April 2023
Orbit: 767 x 779 km, 98.4° (Epoch: 06 June)

Event Time Altitude Azimuth Distance (km) Brightness Sun altitude
Rises 20:40:25 0° 8° (N) 3,250 ? -10.8°
Reaches altitude 10° 20:42:48 10° 3° (N) 2,318 ? -11.2°
Maximum altitude 20:47:41 48° 290° (WNW) 997 ? -12.0°
Drops below altitude 10° 20:52:33 10° 217° (SW) 2,303 ? -12.8°
Sets 20:54:54 0° 212° (SSW) 3,225 ? -13.2°
